sat.trackr.live / text

‹ back to catalog

STARLINK-11340 [DTC]

NORAD 61690 · 2024-195D

PAYLOAD ACTIVE UNKNOWN

§ Identity

Operator
Country
US
Launch date
2024-10-30
Launch site
AFWTR
Launch vehicle
Mass (kg)
RCS (m²)

Purposes: comms

External: N2YO · Heavens-Above · Gunter

§ Orbital elements

Epoch: 2026-09-21T20:53:57.008544Z

Period
91.74 min
Inclination
53.1614°
Eccentricity
0.0001391
Mean motion
15.69713901 rev/d
Perigee alt
358.8 km
Apogee alt
360.7 km
Semi-major
6,737.9 km
B*
4.6805e-6
RAAN
139.3383°
Arg perigee
71.2335°
Mean anomaly
288.8834°
Rev number
10,984

§ Raw data

STARLINK-11340 [DTC]1 61690U 24195D   26264.87079871 -.00000022  00000+0  46805-5 0  99922 61690  53.1614 139.3383 0001391  71.2335 288.8834 15.69713901109844

JSON: /api/v1/satellites/61690 · /tle

For live sub-satellite position, see the globe view (requires WebGL).

§ Visibility from observer

Set your observer location to see the next 7 days of passes ≥ 10°. The values pass through the URL so the page stays shareable.

No JS? Fill the form by hand. The geolocation button needs JavaScript.